Weather History for Provo, UT

Change the Weather History Date:

Saturday, September 29, 2012

  Actual Average Record
Temperature  
Mean Temperature 62 °F -  
Max Temperature 78 °F 70 °F 87 °F (1989)
Min Temperature 46 °F 43 °F 32 °F (1985)
Degree Days  
Heating Degree Days 3    
Growing Degree Days 12 (Base 50)    
Moisture  
Dew Point 44 °F    
Average Humidity 62    
Maximum Humidity 82    
Minimum Humidity 24    
Precipitation  
Precipitation 0.00 in - - ()
Sea Level Pressure  
Sea Level Pressure 30.18 in    
Wind  
Wind Speed 2 mph (SSE)    
Max Wind Speed 8 mph    
Max Gust Speed -    
Visibility 12 miles    
Events      
Averages and records for this station are not official NWS values.
T = Trace of Precipitation, MM = Missing Value Source: NWS Daily Summary

Daily Weather History Graph

Daily Weather History Graph

Search for Another Location

Airport:

Trip Planner

Search our weather history database for the weather conditions in past years. The results will help you decide how hot, cold, wet, or windy it might be!

Date:

Astronomy

Sep. 29, 2012 Rise Set
Actual Time 7:21 AM MDT 7:11 PM MDT
Civil Twilight 6:54 AM MDT 7:38 PM MDT
Nautical Twilight 6:23 AM MDT 8:10 PM MDT
Astronomical Twilight 5:51 AM MDT 8:41 PM MDT
Moon 6:45 PM MDT (9/29) 6:56 AM MDT (9/29)
Length of Visible Light 12h 43m
Length of Day
11h 49m
Full, 100% of the Moon is Illuminated
Sep 29
Full
Sep 29
Full
Oct 8
Last Quarter
Oct 15
New
Oct 21
First Quarter

Hourly Weather History & Observations

Time (MDT) Temp. Dew Point Humidity Pressure Visibility Wind Dir Wind Speed Gust Speed Precip Events Conditions
12:15 AM 55.4 °F 42.8 °F 63% 30.12 in 10.0 mi Calm Calm - N/A   Clear
12:35 AM 55.4 °F 39.2 °F 54% 30.12 in 10.0 mi SSW 4.6 mph - N/A   Clear
12:55 AM 55.4 °F 41.0 °F 58% 30.12 in 10.0 mi SSW 3.5 mph - N/A   Clear
1:15 AM 55.4 °F 41.0 °F 58% 30.13 in 10.0 mi Calm Calm - N/A   Clear
1:55 AM 51.8 °F 42.8 °F 71% 30.14 in 10.0 mi SE 3.5 mph - N/A   Clear
2:15 AM 50.0 °F 42.8 °F 76% 30.14 in 10.0 mi Calm Calm - N/A   Clear
2:35 AM 48.2 °F 42.8 °F 82% 30.15 in 10.0 mi Calm Calm - N/A   Clear
2:55 AM 50.0 °F 42.8 °F 76% 30.15 in 10.0 mi Calm Calm - N/A   Clear
3:15 AM 50.0 °F 42.8 °F 76% 30.15 in 10.0 mi Calm Calm - N/A   Clear
3:35 AM 50.0 °F 42.8 °F 76% 30.15 in 10.0 mi Calm Calm - N/A   Clear
3:55 AM 48.2 °F 42.8 °F 82% 30.14 in 10.0 mi Calm Calm - N/A   Clear
4:15 AM 51.8 °F 42.8 °F 71% 30.14 in 10.0 mi South 3.5 mph - N/A   Clear
4:35 AM 50.0 °F 42.8 °F 76% 30.15 in 10.0 mi Calm Calm - N/A   Clear
4:55 AM 48.2 °F 42.8 °F 82% 30.15 in 10.0 mi Calm Calm - N/A   Clear
5:55 AM 48.2 °F 41.0 °F 76% 30.16 in 10.0 mi Calm Calm - N/A   Clear
6:15 AM 48.2 °F 41.0 °F 76% 30.17 in 10.0 mi SSE 3.5 mph - N/A   Clear
6:35 AM 48.2 °F 42.8 °F 82% 30.18 in 10.0 mi Calm Calm - N/A   Clear
6:47 AM 46.4 °F 41.0 °F 81% 30.18 in 15.0 mi Calm Calm - N/A   Partly Cloudy
7:47 AM 50.0 °F 41.0 °F 71% 30.19 in 15.0 mi ESE 6.9 mph - N/A   Partly Cloudy
8:47 AM 51.8 °F 42.8 °F 71% 30.20 in 15.0 mi Calm Calm - N/A   Partly Cloudy
9:47 AM 60.8 °F 42.8 °F 52% 30.23 in 15.0 mi SSE 3.5 mph - N/A   Partly Cloudy
10:55 AM 64.4 °F 44.6 °F 49% 30.23 in 15.0 mi SSE 3.5 mph - N/A   Scattered Clouds
11:55 AM 69.8 °F 42.8 °F 38% 30.23 in 15.0 mi Calm Calm - N/A   Scattered Clouds
12:58 PM 69.8 °F 50.0 °F 49% 30.22 in 15.0 mi Variable 4.6 mph - N/A   Scattered Clouds
1:47 PM 71.6 °F 48.2 °F 43% 30.19 in 15.0 mi West 8.1 mph - N/A   Scattered Clouds
3:48 PM 75.2 °F 39.2 °F 27% 30.16 in 15.0 mi Variable 4.6 mph - N/A   Scattered Clouds
3:55 PM 73.4 °F 41.0 °F 31% 30.17 in 15.0 mi Variable 5.8 mph - N/A   Scattered Clouds
4:49 PM 78.8 °F 39.2 °F 24% 30.16 in 15.0 mi WNW 6.9 mph - N/A   Partly Cloudy
5:47 PM 75.2 °F 46.4 °F 36% 30.15 in 15.0 mi WNW 6.9 mph - N/A   Partly Cloudy
6:50 PM 71.6 °F 44.6 °F 38% 30.16 in 15.0 mi NW 5.8 mph - N/A   Partly Cloudy
7:56 PM 64.4 °F 51.8 °F 64% 30.17 in 15.0 mi WNW 4.6 mph - N/A   Partly Cloudy
8:47 PM 64.4 °F 50.0 °F 59% 30.19 in 15.0 mi WNW 5.8 mph - N/A   Partly Cloudy
9:15 PM 60.8 °F 48.2 °F 63% 30.19 in 10.0 mi NNE 6.9 mph - N/A   Clear
9:55 PM 60.8 °F 44.6 °F 55% 30.20 in 10.0 mi ENE 6.9 mph - N/A   Clear
10:15 PM 57.2 °F 46.4 °F 67% 30.21 in 10.0 mi SE 3.5 mph - N/A   Clear
10:35 PM 57.2 °F 46.4 °F 67% 30.22 in 10.0 mi SE 4.6 mph - N/A   Clear
10:55 PM 55.4 °F 46.4 °F 72% 30.22 in 10.0 mi ESE 5.8 mph - N/A   Clear
11:15 PM 55.4 °F 44.6 °F 67% 30.22 in 10.0 mi SE 6.9 mph - N/A   Clear
11:35 PM 57.2 °F 42.8 °F 59% 30.22 in 10.0 mi SE 5.8 mph - N/A   Clear
11:55 PM 57.2 °F 42.8 °F 59% 30.23 in 10.0 mi East 3.5 mph - N/A   Clear